Wind_Speed
19 19 18 16 16 17 17 17 16 14 14 15 16 17 17 17 17 17 18 19 20 21 21 21 22 23 23 23 24 25 26 27 28 29 29 29 30 29 27 27 25 24
21 20 19 17 18 18 18 17 17 15 14 16 17 17 17 17 17 18 19 20 22 23 23 23 24 24 24 24 24 26 27 28 29 30 31 31 31 30 28 27 26 24
22 21 20 19 19 19 19 18 17 16 16 17 17 17 17 18 19 19 20 21 22 23 24 24 24 24 24 25 26 27 28 29 30 32 34 33 33 32 30 28 27 25
22 22 22 21 20 19 19 18 18 17 17 17 16 17 18 19 19 20 20 21 22 23 24 24 24 25 26 27 28 29 30 31 32 34 35 35 33 32 31 29 28 26
22 22 23 22 20 19 19 18 18 17 17 16 16 17 17 18 19 20 20 21 22 23 23 24 25 26 28 29 31 32 32 33 34 35 37 36 31 29 29 30 29 27
23 23 23 22 20 19 19 18 17 17 17 16 17 17 17 17 18 19 20 21 23 23 23 25 27 28 29 32 33 35 36 37 37 37 36 33 26 23 26 29 29 28
23 23 23 22 20 19 19 18 17 16 16 16 16 17 17 18 18 17 18 20 22 23 24 26 28 29 31 33 34 36 38 40 39 35 31 26 21 21 25 28 30 29
22 22 21 20 19 19 18 17 16 16 16 15 15 16 17 17 17 17 17 19 22 23 24 26 28 30 31 32 34 34 36 39 35 26 22 20 20 22 26 28 30 30
19 20 19 18 18 18 18 17 16 15 15 15 15 15 15 15 16 17 18 19 21 22 23 25 27 29 30 31 32 32 32 33 26 18 19 22 23 25 27 29 31 32
17 17 17 17 16 17 17 16 15 14 15 15 14 13 14 15 15 16 17 19 20 21 23 25 27 29 30 31 32 31 29 27 23 21 25 27 25 26 28 30 33 35
16 16 15 16 15 15 16 15 14 14 15 15 15 14 13 15 16 17 19 20 22 23 24 26 28 29 30 31 32 32 29 28 28 29 31 29 26 26 28 31 34 36
16 16 15 15 14 14 15 15 15 15 15 15 16 16 15 15 16 18 20 22 24 25 26 27 29 30 31 31 32 33 32 32 33 34 34 31 27 27 28 30 33 36
16 16 15 14 14 14 14 15 16 16 14 14 17 19 19 18 18 20 21 23 26 28 29 30 31 33 33 33 33 33 33 34 35 36 36 34 30 28 28 30 32 36
18 17 15 14 13 14 15 15 16 17 15 14 16 19 22 22 22 22 24 27 29 32 34 35 36 37 37 36 36 35 34 35 37 37 37 36 32 29 30 32 33 36
18 17 14 13 13 14 15 15 17 18 17 16 16 18 21 23 24 24 26 29 32 34 37 39 40 41 41 40 40 38 36 36 37 38 37 36 32 30 31 34 35 37
18 16 13 13 13 15 15 15 16 17 18 18 17 18 21 23 25 26 29 31 34 36 39 41 42 43 43 43 42 41 38 37 38 38 37 35 33 32 34 36 37 38
16 14 13 13 15 15 15 16 17 18 20 21 21 21 22 25 27 29 31 33 35 38 41 43 43 43 43 43 43 42 40 38 38 39 38 35 33 34 36 37 39 39
15 14 14 15 16 16 17 18 19 20 21 23 25 25 26 28 30 31 32 34 36 39 41 43 44 43 43 42 42 42 41 41 40 39 38 36 36 37 38 38 39 39
15 16 16 16 17 18 19 21 22 22 24 25 27 29 30 32 34 34 35 37 39 41 43 44 44 43 42 42 42 42 42 43 43 41 39 38 38 38 38 38 38 37
17 18 18 18 19 20 21 22 23 24 26 28 29 31 33 36 38 39 40 41 43 44 45 45 45 44 43 43 43 43 43 44 44 43 40 39 39 39 38 37 36 37
18 19 19 19 20 21 22 24 25 26 27 29 32 34 36 38 40 42 43 45 46 46 46 46 46 46 45 44 43 43 43 44 44 42 40 40 40 40 38 36 36 38
18 19 19 19 21 22 24 26 27 28 29 32 34 36 38 40 42 43 44 46 47 47 48 48 46 46 46 44 43 43 43 42 41 41 40 40 40 39 38 37 37 39
21 22 22 23 24 25 27 29 30 31 32 34 36 39 41 43 44 45 46 46 46 48 50 49 47 46 46 43 42 43 42 40 39 39 39 39 39 39 40 40 39 41
26 26 27 27 27 28 31 32 33 34 35 37 39 41 43 45 46 46 45 44 46 49 50 50 48 46 45 43 42 41 39 38 38 38 38 39 40 41 43 43 42 42
30 31 32 31 30 31 33 35 36 37 37 39 41 43 46 49 45 41 41 43 46 49 50 49 48 46 44 43 42 40 37 37 37 37 37 39 43 46 46 45 43 43
33 34 35 35 34 34 36 37 39 40 41 43 45 45 48 49 44 39 41 45 47 48 47 46 46 45 44 43 42 40 39 38 38 38 39 42 46 48 45 43 43 47
Wind_Direction
258 260 261 267 271 269 266 267 268 269 273 276 281 285 285 286 290 295 301 306 309 314 317 319 321 323 324 323 321 320 318 317 316 314 314 315 312 308 307 305 298 288
257 259 259 264 268 267 266 266 268 269 271 275 280 284 287 289 293 298 304 308 312 316 319 320 320 322 322 321 318 316 315 315 315 312 312 313 311 307 303 302 300 292
256 257 257 261 265 266 266 265 267 270 272 277 283 287 291 294 299 304 308 311 315 318 320 319 319 319 320 319 316 315 315 315 315 313 311 312 309 305 301 299 300 296
255 255 255 259 265 266 264 264 267 271 275 279 286 291 295 300 305 308 308 311 315 317 318 318 319 319 319 318 317 316 317 316 315 313 312 311 307 302 299 297 296 294
250 252 254 260 265 265 263 265 269 273 276 281 288 293 298 303 305 304 304 306 310 315 317 317 319 320 320 319 318 318 318 316 316 315 313 313 308 300 297 294 292 293
247 249 255 261 265 265 265 268 271 275 279 284 288 292 299 303 303 303 303 304 308 314 318 317 319 321 320 319 319 320 319 317 318 316 313 314 310 297 291 290 290 291
250 252 257 262 265 265 266 270 273 277 281 285 288 293 298 300 302 307 307 307 311 315 317 317 318 320 319 318 320 322 321 320 320 315 309 309 307 295 290 289 289 290
256 258 260 262 263 263 266 271 275 279 283 286 290 294 296 299 304 309 309 309 313 315 316 317 317 318 318 318 321 323 322 322 321 313 304 304 302 298 297 295 292 290
261 261 260 259 260 262 267 272 276 282 288 290 292 294 301 309 311 312 312 314 317 318 317 318 317 318 318 319 322 323 323 324 323 314 312 314 308 305 305 304 302 298
263 260 257 257 259 264 269 273 279 286 291 292 293 298 310 320 320 318 317 318 319 318 318 319 318 319 319 320 321 320 319 319 317 313 314 317 313 309 310 309 308 306
260 259 257 258 262 268 272 275 280 286 291 294 297 302 311 319 320 319 317 315 315 316 317 318 318 319 318 317 316 315 312 308 306 306 309 311 308 305 307 307 307 306
261 261 259 260 267 273 273 275 279 286 293 298 301 306 311 314 315 314 313 313 312 312 313 314 314 314 314 313 310 309 309 305 303 304 306 307 302 299 303 304 303 303
264 262 261 267 274 275 273 275 281 285 289 295 302 307 310 312 312 311 311 311 311 311 311 310 310 310 312 312 309 306 304 303 302 302 304 305 300 297 302 304 300 299
263 263 266 274 276 273 273 277 281 283 285 289 297 303 307 310 313 314 314 313 313 313 312 311 311 310 311 312 309 305 301 299 299 299 301 302 298 295 301 305 302 298
261 265 271 275 272 272 276 277 279 282 286 290 294 299 304 308 312 313 314 314 315 315 315 315 314 312 310 310 308 305 301 297 296 296 297 298 296 293 299 304 303 300
260 267 270 269 269 272 276 278 280 285 291 295 297 301 304 306 307 309 311 313 315 316 317 318 318 315 311 308 306 304 301 296 295 295 294 295 294 294 298 301 300 299
261 264 264 264 269 274 278 283 287 292 296 299 301 302 302 303 304 306 309 311 314 316 317 318 318 316 312 307 304 302 300 296 294 294 294 294 294 295 298 299 298 298
259 261 261 265 272 278 284 289 293 296 298 301 302 302 301 301 302 305 308 311 314 316 318 318 317 315 312 308 303 300 299 297 295 294 295 295 295 297 299 298 296 296
259 261 263 268 277 285 290 293 295 297 299 301 303 303 302 301 301 303 307 311 314 316 317 317 317 315 312 307 303 300 299 299 298 297 296 296 296 298 299 298 296 296
260 264 268 274 281 287 291 292 294 297 300 302 303 302 301 300 300 303 306 309 312 314 314 315 316 315 313 308 304 301 299 299 299 299 297 296 297 299 299 297 295 294
264 268 273 278 283 288 290 292 294 298 300 301 300 299 299 299 301 303 305 307 308 310 312 313 313 315 314 309 305 303 301 299 298 298 297 296 297 299 299 295 293 292
270 271 275 280 284 289 292 294 296 298 299 298 297 297 297 298 300 302 304 305 306 309 311 311 310 312 313 309 305 305 304 301 298 299 299 299 300 300 297 294 292 291
273 274 278 281 285 289 292 294 297 297 297 297 295 295 295 295 297 299 300 302 305 308 309 308 308 310 311 309 306 305 305 302 300 301 302 303 303 301 298 297 294 291
275 276 277 279 283 288 291 293 295 295 294 294 293 292 292 292 294 297 297 299 303 305 306 306 307 308 310 310 308 307 304 302 302 304 306 306 304 302 301 299 294 291
274 275 276 277 281 286 288 290 291 291 290 289 288 287 288 290 295 299 299 299 301 302 303 304 305 307 309 310 310 308 304 303 304 306 307 306 304 303 301 297 294 295
272 274 277 280 282 284 286 287 287 287 286 285 285 285 288 293 299 302 300 299 300 300 301 303 305 307 309 310 310 308 305 305 306 306 306 305 304 304 302 297 295 296
Height
5910 5910 5911 5911 5911 5911 5911 5910 5911 5912 5913 5913 5912 5912 5912 5911 5911 5910 5909 5909 5908 5907 5906 5905 5904 5903 5902 5901 5900 5899 5898 5896 5895 5893 5892 5891 5889 5887 5886 5885 5884 5883
5908 5908 5909 5909 5909 5909 5909 5909 5909 5910 5911 5911 5911 5911 5910 5909 5909 5909 5908 5907 5906 5905 5904 5903 5902 5901 5899 5898 5897 5896 5895 5893 5892 5890 5889 5888 5886 5884 5882 5881 5880 5880
5906 5906 5907 5907 5907 5907 5907 5907 5908 5909 5909 5909 5909 5909 5908 5908 5907 5907 5906 5905 5904 5903 5902 5901 5900 5898 5897 5896 5895 5893 5892 5891 5889 5887 5886 5884 5883 5880 5878 5877 5876 5876
5903 5904 5904 5905 5905 5905 5905 5906 5906 5907 5908 5908 5908 5908 5907 5906 5905 5904 5904 5903 5902 5901 5900 5899 5898 5896 5895 5894 5892 5891 5889 5888 5886 5884 5882 5880 5879 5876 5875 5873 5873 5872
5901 5901 5902 5902 5903 5903 5903 5904 5905 5906 5906 5906 5906 5906 5905 5904 5903 5902 5901 5901 5900 5899 5898 5897 5895 5894 5892 5891 5889 5887 5886 5884 5882 5880 5878 5876 5875 5873 5872 5870 5869 5869
5898 5899 5899 5900 5901 5901 5901 5903 5904 5905 5905 5905 5904 5904 5903 5902 5901 5900 5899 5898 5897 5897 5896 5894 5893 5892 5890 5888 5886 5884 5882 5880 5879 5877 5874 5872 5871 5870 5869 5868 5867 5866
5896 5897 5897 5898 5899 5899 5900 5901 5903 5903 5903 5903 5902 5901 5901 5900 5898 5898 5897 5896 5895 5895 5894 5892 5890 5889 5887 5885 5883 5881 5879 5876 5875 5873 5871 5869 5868 5867 5866 5865 5864 5864
5894 5895 5896 5897 5897 5897 5898 5900 5901 5901 5900 5900 5900 5899 5898 5897 5896 5895 5895 5894 5893 5893 5892 5890 5888 5887 5886 5883 5881 5879 5876 5874 5872 5870 5869 5868 5867 5865 5865 5863 5862 5861
5892 5893 5894 5895 5896 5896 5897 5899 5899 5899 5898 5898 5897 5896 5896 5895 5894 5893 5892 5892 5891 5890 5889 5888 5886 5885 5884 5882 5880 5877 5875 5872 5870 5869 5868 5867 5865 5864 5863 5862 5860 5859
5890 5891 5892 5893 5894 5895 5896 5897 5897 5896 5895 5895 5894 5894 5894 5893 5892 5891 5891 5890 5889 5888 5887 5886 5884 5883 5881 5880 5878 5875 5873 5871 5869 5868 5866 5865 5863 5862 5861 5859 5858 5856
5888 5889 5890 5891 5893 5893 5894 5894 5894 5894 5893 5892 5892 5892 5892 5891 5890 5889 5888 5888 5887 5886 5885 5883 5881 5880 5878 5877 5875 5873 5871 5869 5867 5865 5864 5862 5861 5859 5858 5857 5855 5853
5886 5887 5889 5890 5891 5892 5892 5892 5891 5891 5891 5889 5888 5888 5889 5889 5888 5887 5886 5885 5884 5883 5882 5880 5879 5877 5875 5874 5872 5870 5868 5866 5864 5862 5861 5859 5858 5857 5855 5854 5852 5851
5884 5885 5887 5888 5889 5889 5889 5889 5889 5889 5889 5887 5885 5884 5885 5886 5885 5884 5883 5882 5880 5879 5879 5877 5876 5874 5872 5870 5868 5866 5865 5863 5861 5858 5857 5856 5855 5853 5852 5850 5849 5847
5882 5883 5885 5886 5886 5886 5886 5887 5886 5885 5886 5885 5884 5882 5881 5882 5882 5881 5880 5879 5878 5876 5875 5874 5872 5871 5869 5867 5865 5863 5861 5859 5857 5855 5853 5852 5851 5850 5848 5847 5845 5844
5880 5881 5883 5884 5883 5883 5884 5884 5883 5882 5882 5882 5882 5881 5879 5879 5878 5878 5877 5876 5875 5873 5871 5870 5869 5867 5866 5863 5861 5859 5857 5856 5854 5852 5850 5848 5847 5846 5845 5843 5841 5840
5878 5879 5881 5881 5881 5881 5881 5880 5880 5879 5878 5878 5879 5878 5877 5876 5875 5875 5874 5873 5871 5870 5868 5867 5866 5864 5862 5859 5857 5855 5853 5852 5849 5847 5846 5844 5843 5842 5841 5839 5837 5835
5876 5877 5878 5878 5878 5878 5878 5877 5877 5876 5875 5875 5875 5875 5874 5873 5872 5871 5871 5870 5868 5867 5865 5863 5862 5861 5858 5855 5853 5851 5849 5847 5845 5843 5842 5841 5839 5838 5837 5835 5833 5831
5873 5874 5875 5875 5875 5874 5874 5874 5874 5873 5873 5872 5871 5871 5870 5869 5868 5868 5867 5866 5865 5864 5862 5861 5859 5857 5855 5852 5849 5847 5845 5843 5841 5839 5838 5837 5836 5834 5832 5830 5828 5827
5871 5872 5872 5872 5872 5871 5871 5871 5870 5870 5870 5869 5868 5867 5867 5866 5865 5864 5863 5862 5861 5860 5859 5857 5855 5854 5851 5848 5845 5843 5842 5839 5837 5836 5834 5833 5832 5830 5828 5826 5824 5823
5868 5869 5869 5869 5869 5868 5868 5867 5867 5867 5866 5866 5866 5865 5864 5862 5861 5860 5859 5857 5856 5856 5854 5853 5851 5849 5847 5844 5841 5839 5837 5835 5833 5831 5830 5828 5827 5826 5824 5821 5819 5818
5865 5866 5866 5866 5866 5865 5865 5864 5864 5864 5864 5864 5863 5862 5860 5859 5857 5856 5855 5853 5852 5851 5850 5847 5845 5844 5842 5840 5837 5835 5833 5830 5829 5827 5825 5824 5822 5821 5819 5816 5815 5813
5862 5862 5863 5863 5863 5862 5862 5862 5862 5862 5862 5861 5860 5859 5857 5855 5854 5853 5851 5850 5848 5847 5844 5842 5840 5839 5837 5835 5832 5830 5828 5826 5824 5822 5820 5819 5817 5815 5813 5811 5810 5808
5859 5859 5859 5859 5859 5859 5859 5859 5859 5859 5858 5857 5856 5855 5853 5851 5850 5849 5847 5846 5844 5842 5839 5837 5835 5834 5832 5830 5828 5825 5823 5821 5820 5818 5816 5815 5813 5810 5807 5806 5806 5803
5855 5856 5856 5856 5856 5856 5856 5855 5855 5855 5854 5853 5852 5850 5848 5847 5846 5845 5843 5841 5840 5838 5835 5833 5831 5830 5828 5826 5823 5822 5819 5817 5816 5814 5812 5810 5808 5805 5803 5802 5800 5798
5851 5852 5852 5853 5853 5852 5852 5851 5851 5850 5849 5848 5847 5845 5843 5842 5841 5840 5838 5837 5835 5834 5832 5829 5827 5825 5824 5822 5820 5818 5816 5814 5812 5810 5808 5806 5803 5800 5799 5796 5794 5792
5847 5848 5848 5848 5848 5848 5847 5847 5846 5845 5844 5843 5842 5841 5839 5837 5836 5835 5834 5832 5831 5829 5828 5826 5823 5821 5820 5818 5816 5814 5812 5810 5809 5807 5805 5803 5799 5795 5794 5792 5790 5788